Home   Weather   Navi Mumbai   Past weeks

Flag for India Past Weather in Navi Mumbai, Maharashtra, India — Yesterday and Last 2 Weeks

Now
81 °F

Clear.


Feels Like: 81 °F
Forecast: 74 / 96 °F
Wind: 7 mph from Northeast

Location: Mumbai / Santacruz

Current Time: Dec 4, 2016 at 5:28:46 am

Latest Report: Dec 4, 2016 at 5:00 am


Visibility: 2 mi

Pressure: 29.92 "Hg

Humidity: 51%

Dew Point: 61 °F

Location of Navi MumbaiLocation

Past Weather in Navi Mumbai — Graph

°F

Navi Mumbai Temperature Yesterday

Maximum temperature yesterday: 95 °F (at 3:00 pm)
Minimum temperature yesterday: 72 °F (at 6:30 am)
Average temperature yesterday: 84 °F

High & Low Weather Summary for the Past Weeks

 TemperatureHumidityPressure
High95 °F (Nov 19, 1:30 pm)83% (Nov 29, 3:30 am)30.01 "Hg (Nov 29, 3:30 am)
Low70 °F (Nov 21, 5:00 am)16% (Nov 21, 2:00 pm)29.77 "Hg (Nov 19, 4:30 pm)
Average83 °F46%29.88 "Hg
* Reported Nov 19 3:30 am — Dec 4 4:00 am, Navi Mumbai, Weather by CustomWeather, © 2016

Note: Actual official high and low records may vary slightly from our data, if they occured in-between our weather recording intervals... More about our weather records

Advertising

Navi Mumbai Weather History for the Previous 24 Hours

Scroll right to see more
 ConditionsComfort  
Time TempWeatherWind HumidityBarometerVisibility
4:00 am
Sun, Dec 4
82 °FClear.9 mph51%29.92 "Hg1 mi
3:30 am82 °FClear.6 mph51%29.92 "Hg1 mi
3:00 am81 °FClear.7 mph51%29.92 "Hg1 mi
2:30 am81 °FClear.6 mph51%29.92 "Hg1 mi
2:00 am82 °FClear.6 mph48%29.92 "Hg1 mi
1:30 am82 °FClear.6 mph48%29.92 "Hg1 mi
1:00 am81 °FClear.3 mph51%29.92 "Hg1 mi
12:30 am81 °FClear.3 mph51%29.95 "Hg1 mi
12:00 am81 °FClear.6 mph54%29.95 "Hg1 mi
11:30 pm
Sat, Dec 3
81 °FClear.6 mph54%29.95 "Hg1 mi
11:00 pm82 °FClear.3 mph51%29.95 "Hg1 mi
10:30 pm82 °FClear.5 mph51%29.95 "Hg1 mi
10:00 pm82 °FClear.5 mph55%29.95 "Hg1 mi
9:30 pm84 °FClear.6 mph55%29.95 "Hg1 mi
9:00 pm84 °FClear.6 mph55%29.95 "Hg1 mi
8:30 pm84 °FClear.6 mph55%29.95 "Hg1 mi
8:00 pm84 °FClear.6 mph55%29.92 "Hg1 mi
7:30 pm86 °FClear.7 mph52%29.92 "Hg1 mi
7:00 pm86 °FClear.8 mph52%29.89 "Hg1 mi
6:30 pm86 °FClear.5 mph52%29.89 "Hg1 mi
5:30 pm88 °FClear.7 mph49%29.86 "Hg2 mi
5:00 pm90 °FClear.7 mph49%29.86 "Hg2 mi
4:30 pm91 °FClear.9 mph44%29.86 "Hg2 mi
4:00 pm95 °FClear.8 mph36%29.86 "Hg2 mi
3:30 pm95 °FClear.6 mph25%29.86 "Hg2 mi
3:00 pm95 °FClear.5 mph30%29.86 "Hg2 mi
2:30 pm93 °FClear.6 mph36%29.86 "Hg2 mi
2:00 pm93 °FClear.5 mph36%29.89 "Hg2 mi
1:30 pm93 °FClear.3 mph34%29.89 "Hg2 mi
1:00 pm91 °FClear.6 mph34%29.92 "Hg2 mi
12:30 pm90 °FClear.7 mph33%29.95 "Hg1 mi
12:00 pm90 °FClear.8 mph36%29.95 "Hg1 mi
11:30 am88 °FClear.8 mph35%29.95 "Hg1 mi
11:00 am88 °FClear.9 mph33%29.98 "Hg1 mi
10:30 am88 °FClear.9 mph33%29.98 "Hg1 mi
10:00 am86 °FClear.10 mph33%29.98 "Hg1 mi
9:30 am82 °FClear.8 mph40%29.98 "Hg1 mi
9:00 am81 °FClear.9 mph42%29.98 "Hg1 mi
8:30 am79 °FClear.5 mph48%29.95 "Hg1 mi
7:30 am75 °FClear.6 mph54%29.92 "Hg1 mi
7:00 am73 °FClear.5 mph53%29.92 "Hg1 mi
6:30 am72 °FClear.3 mph61%29.89 "Hg1 mi
6:00 am75 °FClear.5 mph50%29.89 "Hg1 mi
5:30 am75 °FClear.5 mph50%29.89 "Hg1 mi
5:00 am77 °FClear.5 mph47%29.89 "Hg1 mi
Weather by CustomWeather, © 2016

See weather overviewHow to use our weather pages